Weather reports worldwide

Advertisment
Reus, Spain (8175): temperature & dewpoint: 18.08.2019 07:00:00 - 24.08.2019 07:00:00 (CEST)Reus, Spain (8175): wind speed: 18.08.2019 07:00:00 - 24.08.2019 07:00:00 (CEST)Reus, Spain (8175): wind direction: 18.08.2019 07:00:00 - 24.08.2019 07:00:00 (CEST)Reus, Spain (8175): reduced air pressure: 18.08.2019 07:00:00 - 24.08.2019 07:00:00 (CEST)Reus, Spain (8175): visibility: 18.08.2019 07:00:00 - 24.08.2019 07:00:00 (CEST)
Date & Time tt [°C] td [°C] ff [km/h] ff [kn] dd ppp [hPa] vv [km]
24.08.2019 07:00:00 19,8 15,6 9 5 N 1018,8 23
24.08.2019 06:00:00 19,3 16,1 9 5 NNE 1018,8 30
24.08.2019 05:00:00 19,7 15,8 9 5 NNW 1018,9 30
24.08.2019 04:00:00 20,1 15,8 4 2 NNE 1019,1 27
24.08.2019 03:00:00 20,3 15,9 5 3 NE 1019,0 19
24.08.2019 02:00:00 21,4 15,6 11 6 NNW 1019,2 28
24.08.2019 01:00:00 21,9 16,7 9 5 N 1019,1 30
24.08.2019 00:00:00 22,5 17,7 9 5 N 1019,0 24
23.08.2019 23:00:00 23,3 17,9 9 5 NNW 1019,1 30
23.08.2019 22:00:00 24,3 19,4 4 2 S 1019,0 30
23.08.2019 21:00:00 25,1 19,1 5 3 S 1018,6 30
23.08.2019 20:00:00 26,8 19,2 9 5 S 1018,4 30
23.08.2019 19:00:00 28,0 17,6 11 6 SSE 1018,5 30
23.08.2019 18:00:00 29,2 17,2 8 4 SSW 1018,8 30
23.08.2019 17:00:00 28,7 17,7 15 8 SSE 1019,0 30
23.08.2019 16:00:00 29,4 17,6 16 9 SSE 1019,0 30
23.08.2019 15:00:00 29,7 17,6 15 8 SE 1019,4 30
23.08.2019 14:00:00 29,2 19,4 18 10 SE 1019,6 30
23.08.2019 13:00:00 29,2 20,3 18 10 SE 1020,0 30
23.08.2019 12:00:00 28,9 19,9 13 7 SE 1020,3 30
23.08.2019 11:00:00 28,3 19,0 11 6 SE 1020,5 30
23.08.2019 10:00:00 26,8 16,8 9 5 SSE 1020,4 30
23.08.2019 09:00:00 24,5 16,3 8 4 NE 1020,2 30
23.08.2019 08:00:00 20,7 15,8 11 6 NE 1019,7 30
23.08.2019 07:00:00 19,4 15,7 8 4 N 1019,7 30
23.08.2019 06:00:00 19,6 16,4 8 4 N 1019,8 30
23.08.2019 05:00:00 20,8 16,0 9 5 N 1019,9 30
23.08.2019 04:00:00 21,2 18,4 9 5 N 1020,3 30
23.08.2019 03:00:00 21,3 19,0 8 4 E 1020,4 20
23.08.2019 02:00:00 22,4 19,4 13 7 WNW 1020,4 30
23.08.2019 01:00:00 22,2 19,2 8 4 N 1020,6 26
23.08.2019 00:00:00 22,8 19,1 8 4 NNW 1020,6 30
22.08.2019 23:00:00 24,0 19,1 4 2 N 1020,7 30
22.08.2019 22:00:00 24,2 18,8 2 1 SW 1020,4 30
22.08.2019 21:00:00 25,0 19,0 9 5 S 1019,8 27
22.08.2019 20:00:00 26,3 19,4 15 8 S 1019,1 30
22.08.2019 19:00:00 28,1 18,3 16 9 SSW 1018,8 30
22.08.2019 18:00:00 28,5 18,5 16 9 S 1018,9 17
22.08.2019 17:00:00 29,4 19,1 18 10 S 1018,9 30
22.08.2019 16:00:00 30,0 18,9 16 9 SE 1018,5 30
22.08.2019 15:00:00 30,3 18,6 18 10 S 1018,8 30
22.08.2019 14:00:00 30,5 16,9 18 10 S 1019,1 30
22.08.2019 13:00:00 30,6 16,3 5 3 SW 1019,4 30
22.08.2019 12:00:00 28,8 17,0 5 3 NNW 1019,8 30
22.08.2019 11:00:00 27,7 16,9 5 3 WNW 1020,1 30
22.08.2019 10:00:00 26,0 15,8 9 5 WSW 1020,2 30
22.08.2019 09:00:00 22,9 19,1 4 2 S 1020,3 30
22.08.2019 08:00:00 21,1 19,0 9 5 NE 1019,7 30
22.08.2019 07:00:00 21,2 18,8 5 3 W 1019,4 16
22.08.2019 06:00:00 21,4 19,5 4 2 N 1019,1 17
22.08.2019 05:00:00 22,0 19,9 4 2 N 1019,2 22
22.08.2019 04:00:00 22,8 20,7 8 4 N 1019,3 20
22.08.2019 03:00:00 23,6 20,8 5 3 N 1018,7 28
22.08.2019 02:00:00 23,9 20,7 8 4 NE 1019,0 25
22.08.2019 01:00:00 24,2 20,5 13 7 N 1019,0 27
22.08.2019 00:00:00 24,4 20,8 11 6 N 1019,2 30
21.08.2019 23:00:00 24,5 20,9 0 0 N 1019,2 30
21.08.2019 22:00:00 24,5 20,9 4 2 ESE 1019,1 21
21.08.2019 21:00:00 25,0 20,7 9 5 SSW 1018,3 28
21.08.2019 20:00:00 25,1 20,5 9 5 SW 1018,0 30
21.08.2019 19:00:00 25,3 20,2 18 10 SSW 1017,9 30
21.08.2019 18:00:00 26,1 20,6 22 12 SSW 1018,1 30
21.08.2019 17:00:00 26,6 20,7 29 16 SSW 1018,1 30
21.08.2019 16:00:00 27,5 20,2 26 14 SSW 1018,1 30
21.08.2019 15:00:00 29,2 19,3 22 12 S 1018,5 30
21.08.2019 14:00:00 29,4 17,8 11 6 SSE 1018,6 30
21.08.2019 13:00:00 28,7 17,3 15 8 S 1019,4 30
21.08.2019 12:00:00 26,8 18,2 15 8 SE 1020,0 30
21.08.2019 11:00:00 26,9 17,9 13 7 SE 1020,1 30
21.08.2019 10:00:00 24,5 17,0 8 4 E 1020,3 30
21.08.2019 09:00:00 22,2 16,7 2 1 SE 1020,7 30
21.08.2019 08:00:00 19,0 16,4 5 3 ENE 1021,0 30
21.08.2019 07:00:00 18,4 15,7 4 2 N 1020,8 30
21.08.2019 06:00:00 18,9 15,7 11 6 NNE 1020,6 30
21.08.2019 05:00:00 19,8 15,8 9 5 NE 1020,9 30
21.08.2019 04:00:00 20,2 16,0 8 4 NNE 1021,0 30
21.08.2019 03:00:00 19,8 16,2 8 4 NE 1021,2 30
21.08.2019 02:00:00 20,3 16,4 9 5 NNE 1021,5 30
21.08.2019 01:00:00 20,7 16,6 9 5 N 1021,7 30
21.08.2019 00:00:00 20,9 16,5 11 6 ENE 1021,8 30
20.08.2019 23:00:00 19,9 16,6 8 4 NE 1021,4 30
20.08.2019 22:00:00 22,0 16,5 8 4 NNW 1021,0 30
20.08.2019 21:00:00 23,6 16,2 9 5 NNE 1020,5 30
20.08.2019 20:00:00 25,1 16,3 13 7 NNE 1020,0 30
20.08.2019 19:00:00 25,0 15,6 18 10 NNE 1019,6 30
20.08.2019 18:00:00 26,3 15,3 16 9 N 1019,5 30
20.08.2019 17:00:00 25,0 15,6 21 11 NNE 1019,8 30
20.08.2019 16:00:00 23,5 15,8 26 14 NNE 1020,0 30
20.08.2019 15:00:00 24,1 15,7 29 16 NE 1020,1 30
20.08.2019 14:00:00 24,8 14,4 22 12 NNE 1019,7 30
20.08.2019 13:00:00 24,1 13,4 28 15 N 1019,3 30
20.08.2019 12:00:00 23,5 16,4 18 10 NNE 1019,7 30
20.08.2019 11:00:00 24,7 18,1 11 6 NNW 1018,9 30
20.08.2019 10:00:00 25,2 17,3 11 6 NE 1017,9 30
20.08.2019 09:00:00 24,6 17,6 13 7 NNE 1017,2 30
20.08.2019 08:00:00 24,1 17,8 11 6 NNE 1016,8 30
20.08.2019 07:00:00 24,1 17,9 13 7 NNE 1016,5 30
20.08.2019 06:00:00 24,0 18,5 13 7 NNE 1016,5 30
20.08.2019 05:00:00 23,9 19,4 11 6 ENE 1016,3 30
20.08.2019 04:00:00 23,9 19,8 16 9 ENE 1016,3 30
20.08.2019 03:00:00 23,8 20,2 16 9 E 1016,6 30
20.08.2019 02:00:00 23,9 20,3 13 7 ENE 1016,7 30
20.08.2019 01:00:00 24,1 20,8 8 4 NE 1017,0 30
20.08.2019 00:00:00 24,1 20,9 11 6 ENE 1017,2 30
19.08.2019 23:00:00 24,1 21,3 11 6 ENE 1016,8 23
19.08.2019 22:00:00 24,6 21,8 13 7 E 1017,2 19
19.08.2019 21:00:00 24,8 21,3 15 8 E 1016,3 28
19.08.2019 20:00:00 25,1 21,4 18 10 E 1016,2 20
19.08.2019 19:00:00 26,0 21,5 18 10 E 1015,7 30
19.08.2019 18:00:00 26,2 21,3 18 10 E 1016,0 30
19.08.2019 17:00:00 28,2 21,3 18 10 ESE 1016,0 25
19.08.2019 16:00:00 27,8 21,5 24 13 E 1016,2 30
19.08.2019 15:00:00 29,1 21,4 26 14 ESE 1016,3 22
19.08.2019 14:00:00 28,5 21,7 28 15 E 1016,1 25
19.08.2019 13:00:00 28,7 22,0 26 14 E 1016,2 24
19.08.2019 12:00:00 27,7 22,2 24 13 ESE 1016,1 20
19.08.2019 11:00:00 26,5 22,8 16 9 E 1015,8 25
19.08.2019 10:00:00 26,1 22,1 8 4 ENE 1015,4 30
19.08.2019 09:00:00 25,8 19,6 8 4 WNW 1015,1 27
19.08.2019 08:00:00 25,3 22,0 8 4 E 1014,4 30
19.08.2019 07:00:00 24,9 18,7 5 3 N 1014,3 30
19.08.2019 06:00:00 25,2 18,7 11 6 NW 1013,8 30
19.08.2019 05:00:00 24,4 22,4 8 4 N 1013,9 21
19.08.2019 04:00:00 24,5 22,6 9 5 N 1014,0 17
19.08.2019 03:00:00 24,9 22,9 11 6 N 1013,8 25
19.08.2019 02:00:00 24,4 22,7 9 5 NE 1013,6 16
19.08.2019 01:00:00 25,1 23,3 8 4 NNE 1013,7 27
19.08.2019 00:00:00 24,9 23,3 8 4 ENE 1013,2 26
18.08.2019 23:00:00 24,9 22,8 4 2 E 1012,9 28
18.08.2019 22:00:00 25,4 22,9 5 3 S 1012,2 30
18.08.2019 21:00:00 26,0 23,2 8 4 S 1011,4 30
18.08.2019 20:00:00 27,4 23,8 9 5 S 1011,0 30
18.08.2019 19:00:00 27,9 22,9 9 5 S 1011,0 22
18.08.2019 18:00:00 30,2 23,2 13 7 SSW 1011,4 30
18.08.2019 17:00:00 30,7 23,8 13 7 S 1011,6 25
18.08.2019 16:00:00 30,5 23,6 15 8 S 1012,0 30
18.08.2019 15:00:00 30,3 23,1 15 8 S 1012,3 23
18.08.2019 14:00:00 30,6 22,6 15 8 S 1012,5 30
18.08.2019 13:00:00 29,4 23,5 15 8 SSW 1012,9 30
18.08.2019 12:00:00 29,0 23,6 15 8 S 1012,9 30
18.08.2019 11:00:00 28,6 23,4 11 6 S 1012,7 20
18.08.2019 10:00:00 27,2 23,5 8 4 S 1012,7 25
18.08.2019 09:00:00 25,4 23,5 8 4 N 1012,7 18
18.08.2019 08:00:00 24,8 23,3 8 4 N 1012,5 16
18.08.2019 07:00:00 24,2 23,0 8 4 N 1012,5 20

tt = temperature
td = dewpoint
ff = wind speed
dd = wind direction
ppp = reduced air pressure
vv = visibility

Next stations